Location: 3 Angels Observatory
(30.5437°N, 88.5068°W)
Time: 03:54:47
(UTC-06:00)

Daily predictions for brighter satellites

Satellite Brightness Start Highest point End
(mag) Time Altitude Azimuth Time Altitude Azimuth Time Altitude Azimuth
CZ-3 R/B 3.8 02:03:57 10° WSW 02:56:05 77° S 03:06:36 10° E
Cosmos 2227 Rocket 4.4 03:22:44 21° ENE 03:22:48 21° ENE 03:26:59 10° ESE
Cosmos 2297 Rocket 4.2 03:35:20 21° NE 03:37:07 24° ENE 03:41:38 10° ESE
CENTAUR R/B 3.9 03:38:46 25° N 03:43:21 47° NE 03:51:28 10° SE
CZ-4B R/B 4.4 03:41:36 10° NNE 03:45:58 38° E 03:45:58 38° E
SJ 16-02 4.2 03:55:28 10° SE 03:58:03 15° E 04:00:38 10° ENE
Gbstr 26 Del rocket 4.3 04:08:19 59° SSE 04:08:19 59° SSE 04:14:19 10° SE
IDEFIX/ARIANE 42P 4.2 04:18:23 10° NE 04:23:02 32° E 04:27:38 10° SSE
OAO 3 Rocket 3.8 04:26:09 49° NNE 04:26:09 49° NNE 04:30:35 10° E
Cosmos 1980 Rocket 2.9 04:22:08 10° S 04:27:33 53° ESE 04:33:03 10° NNE
BREEZE-M DEB (TANK) 4.3 04:28:17 44° NNW 04:29:51 67° NE 04:45:43 10° SE
Cosmos 1821 Rocket 3.8 04:29:02 10° S 04:35:07 79° W 04:41:20 10° N
Palapa 6 Rocket 4.3 04:37:48 33° S 04:38:08 34° S 04:42:20 10° ESE
Hubble Space Telescope 1.9 04:41:50 34° SSE 04:41:59 34° SSE 04:45:45 10° E
Meteor 2-10 Rocket 3.3 04:40:50 10° S 04:45:57 78° W 04:50:59 10° N
Cosmos 1535 Rocket 4.3 04:40:10 10° S 04:46:21 76° W 04:52:28 10° N
STPSAT 2 (USA 217) 4.5 04:48:28 67° WSW 04:48:28 67° WSW 04:52:57 10° S
CZ-2C R/B 3.8 04:44:26 10° NNE 04:49:14 40° E 04:54:05 10° SSE
ATLAS 5 CENTAUR R/B 3.8 04:46:32 10° SSE 04:50:09 26° ESE 04:53:57 10° NE
Intelsat 5-3 Rocket 4.1 04:52:18 32° SW 04:54:28 45° S 05:05:52 10° ESE
SL-16 R/B 4.2 04:53:23 10° SSE 04:58:09 29° ESE 05:02:56 10° NE
Lacrosse 5 rocket 3.9 04:55:47 10° N 04:58:18 16° NE 05:00:54 10° E
Cosmos 1697 Rocket 3.0 04:58:30 39° W 04:59:05 41° WNW 05:04:22 10° N
IRS-1C Rocket 4.3 04:55:09 10° N 05:00:12 47° WNW 05:03:00 24° SW
USA 116 3.9 04:58:30 10° SSE 05:02:37 88° WSW 05:07:20 10° NNW
Cosmos 1125 Rocket 3.4 05:00:37 10° SSW 05:05:48 87° ESE 05:11:01 10° NNE
Cosmos 2227 Rocket 2.5 05:04:41 29° WNW 05:06:57 41° WSW 05:12:11 10° S
Cosmos 372 Rocket 3.8 05:10:13 10° SSW 05:15:16 73° WNW 05:20:23 10° NNE
Intelsat 5-1 Rocket 3.9 05:11:26 16° WSW 05:20:02 46° S 05:24:30 10° ESE
Cosmos 1605 Rocket 3.9 05:14:15 10° SSW 05:20:23 69° W 05:26:28 10° N
Okean-O 2.5 05:16:43 10° N 05:21:09 70° WNW 05:25:32 10° SSW
Cosmos 2297 Rocket 2.7 05:17:16 16° NW 05:21:09 36° WSW 05:26:15 10° SSW
Longmarch 3A Rocket 2.8 05:22:32 13° SSW 05:22:42 13° S 05:23:58 10° SSE
CZ-4B R/B 4.3 05:23:00 10° NNW 05:26:57 21° WNW 05:27:53 20° W
MSX 3.8 05:23:50 10° NNE 05:29:38 87° WNW 05:35:24 10° SSW
Cosmos 1862 Rocket 3.7 05:26:29 10° S 05:30:47 78° E 05:35:08 10° N
Cosmos 1484 Rocket 4.3 05:29:55 10° NNE 05:33:42 41° E 05:37:29 10° S
CENTAUR R/B 3.7 05:26:36 10° NW 05:34:00 37° WSW 05:41:33 10° S
COSMO-SKYMED 1 2.6 05:31:19 10° S 05:35:34 57° W 05:39:51 10° NNW
SJ 16-02 2.0 05:32:19 10° SW 05:36:18 32° WNW 05:40:16 10° N
SJ-12 4.0 05:32:31 10° NNE 05:36:40 85° E 05:40:48 10° S
Cosmos 405 Rocket 2.7 05:32:56 10° S 05:36:57 76° W 05:40:55 10° N
Cosmos 1933 4.0 05:34:14 10° SW 05:37:56 33° W 05:41:39 10° NNW
Cosmos 1733 Rocket 3.5 05:33:38 10° N 05:38:00 65° E 05:42:21 10° SSE
SL-12 R/B (Aux Motor) 3.8 05:36:22 17° WNW 05:38:40 62° SW 05:40:39 10° SE
Cosmos 468 4.5 05:33:30 10° NNW 05:38:44 87° WSW 05:43:57 10° SSE
SEDSat Delta rocket 2.9 05:36:11 17° W 05:39:37 82° N 05:43:48 10° E
ASTRO E2 2.7 05:36:48 19° W 05:39:38 80° S 05:43:39 10° ESE
Geosat 4.4 05:34:58 10° SSE 05:39:56 68° ENE 05:44:56 10° NNW
COSMOS 2455 4.0 05:35:31 10° N 05:41:17 46° ENE 05:47:00 10° SE
Cosmos 1862 4.3 05:43:37 10° NW 05:46:54 25° W 05:50:12 10° SSW
CZ-4 R/B 3.9 05:47:29 10° NE 05:50:44 26° E 05:54:00 10° SSE
Radarsat Rocket 4.2 05:47:21 10° N 05:52:52 46° WNW 05:58:44 10° SW
Cosmos 2263 Rocket 4.3 05:49:21 10° N 05:54:08 28° ENE 05:58:55 10° ESE
Cosmos 405 3.0 05:51:53 10° NNW 05:55:25 64° W 05:58:55 10° S
Cosmos 2173 Rocket 4.1 05:50:14 10° S 05:56:28 84° E 06:02:39 10° N
EO 1 Del DPAF 3.2 05:52:54 10° S 05:56:41 64° W 06:00:29 10° NNW
Cosmos 2322 Rocket 2.2 05:52:47 10° SSW 05:58:26 78° WNW 06:04:09 10° NNE
Cosmos 1459 Rocket 4.1 05:52:53 10° S 05:59:04 89° E 06:05:24 10° N
Milstar 3 Cent rocket 4.2 05:55:09 10° SW 06:01:16 47° SSE 06:12:59 10° E
IDEFIX/ARIANE 42P 3.6 05:58:21 10° NNW 06:02:23 23° WNW 06:06:24 10° WSW
Aureole 3 2.7 06:01:22 10° N 06:04:20 83° E 06:07:27 10° S
Cosmos 1782 3.0 06:00:43 10° S 06:04:44 80° E 06:08:47 10° N
Tiangong 1 1.2 06:02:45 10° WNW 06:04:51 33° SW 06:06:58 10° SSE
Cosmos 2227 4.2 06:00:48 10° NNW 06:06:27 88° WSW 06:12:03 10° SSE
Cosmos 2360 Rocket 3.4 06:04:04 10° S 06:09:28 49° ESE 06:14:55 10° NNE
OAO 3 Rocket 3.3 06:04:35 10° WNW 06:09:34 87° NNE 06:14:32 10° ESE
Cosmos 1980 Rocket 3.6 06:08:12 10° W 06:11:49 17° WNW 06:15:26 10° NNW
